• In United Kingdom
  • List of Countries
  • For 7 days
  • Water Temperature
  • Satellite Maps
  • Weather Map
  • Weather Widgets
  • user-avatar
    Login

    Hourly Weather Katerini

    Today, 18 January, Thursday

    Time Temperature Precipitation Wind Pressure Humidity
    00:00 +10°C° 0.6 mm 7 mps 744 mmHg 71%
    01:00 +9°C° 0.6 mm 8 mps 744 mmHg 70%
    02:00 +6°C° 0.6 mm 9 mps 745 mmHg 69%
    03:00 +6°C° 0.2 mm 8 mps 746 mmHg 67%
    04:00 +5°C° 0.2 mm 8 mps 747 mmHg 66%
    05:00 +4°C° 0.2 mm 8 mps 748 mmHg 64%
    06:00 +4°C° 0 mm 8 mps 749 mmHg 64%
    07:00 +2°C° 0 mm 8 mps 751 mmHg 64%
    08:00 +2°C° 0 mm 8 mps 752 mmHg 64%
    09:00 +2°C° 0 mm 9 mps 753 mmHg 58%
    10:00 +3°C° 0 mm 10 mps 754 mmHg 51%
    11:00 +4°C° 0 mm 11 mps 755 mmHg 45%
    12:00 +6°C° 0 mm 11 mps 756 mmHg 43%
    13:00 +6°C° 0 mm 10 mps 756 mmHg 42%
    14:00 +7°C° 0 mm 10 mps 757 mmHg 40%
    15:00 +6°C° 0 mm 9 mps 757 mmHg 43%
    16:00 +6°C° 0 mm 7 mps 757 mmHg 45%
    17:00 +6°C° 0 mm 5 mps 758 mmHg 48%
    18:00 +6°C° 0 mm 5 mps 759 mmHg 50%
    19:00 +5°C° 0 mm 4 mps 759 mmHg 52%
    20:00 +4°C° 0 mm 3 mps 760 mmHg 54%
    21:00 +4°C° 0 mm 3 mps 760 mmHg 55%
    22:00 +4°C° 0 mm 3 mps 760 mmHg 56%
    23:00 +5°C° 0 mm 2 mps 760 mmHg 57%

    Tomorrow, 19 January, Friday

    Time Temperature Precipitation Wind Pressure Humidity
    00:00 +5°C° 0 mm 2 mps 760 mmHg 57%
    01:00 +5°C° 0 mm 2 mps 760 mmHg 57%
    02:00 +5°C° 0 mm 2 mps 760 mmHg 57%
    03:00 +5°C° 0 mm 2 mps 760 mmHg 56%
    04:00 +5°C° 0 mm 2 mps 760 mmHg 56%
    05:00 +5°C° 0 mm 2 mps 759 mmHg 55%
    06:00 +5°C° 0 mm 2 mps 759 mmHg 55%
    07:00 +5°C° 0 mm 2 mps 760 mmHg 55%
    08:00 +5°C° 0 mm 2 mps 760 mmHg 54%
    09:00 +6°C° 0 mm 2 mps 759 mmHg 51%
    10:00 +9°C° 0 mm 1 mps 759 mmHg 47%
    11:00 +11°C° 0 mm 1 mps 759 mmHg 44%
    12:00 +12°C° 0 mm 2 mps 759 mmHg 44%
    13:00 +13°C° 0 mm 2 mps 758 mmHg 44%
    14:00 +14°C° 0 mm 2 mps 758 mmHg 44%
    15:00 +13°C° 0 mm 2 mps 758 mmHg 49%
    16:00 +12°C° 0 mm 2 mps 758 mmHg 54%
    17:00 +12°C° 0 mm 2 mps 758 mmHg 58%
    18:00 +10°C° 0 mm 2 mps 758 mmHg 61%
    19:00 +10°C° 0 mm 2 mps 758 mmHg 64%
    20:00 +9°C° 0 mm 2 mps 758 mmHg 66%
    21:00 +9°C° 0 mm 2 mps 758 mmHg 69%
    22:00 +8°C° 0 mm 2 mps 759 mmHg 71%
    23:00 +8°C° 0 mm 2 mps 759 mmHg 73%

    Day after tomorrow, 20 January, Saturday

    Time Temperature Precipitation Wind Pressure Humidity
    00:00 +8°C° 0 mm 2 mps 759 mmHg 75%
    01:00 +8°C° 0 mm 2 mps 758 mmHg 76%
    02:00 +8°C° 0 mm 2 mps 758 mmHg 77%
    03:00 +7°C° 0 mm 2 mps 758 mmHg 78%
    04:00 +7°C° 0 mm 2 mps 757 mmHg 78%
    05:00 +7°C° 0 mm 2 mps 757 mmHg 79%
    06:00 +7°C° 0 mm 2 mps 757 mmHg 80%
    07:00 +8°C° 0 mm 1 mps 757 mmHg 81%
    08:00 +8°C° 0 mm 1 mps 758 mmHg 82%
    09:00 +10°C° 0 mm 1 mps 757 mmHg 78%
    10:00 +11°C° 0 mm 1 mps 757 mmHg 74%
    11:00 +13°C° 0 mm 1 mps 757 mmHg 70%
    12:00 +13°C° 0 mm 2 mps 757 mmHg 69%
    13:00 +14°C° 0 mm 2 mps 756 mmHg 67%
    14:00 +14°C° 0 mm 2 mps 755 mmHg 66%
    15:00 +14°C° 0 mm 2 mps 755 mmHg 70%
    16:00 +13°C° 0 mm 2 mps 755 mmHg 74%
    17:00 +13°C° 0 mm 2 mps 755 mmHg 78%
    18:00 +13°C° 0.1 mm 2 mps 755 mmHg 80%
    19:00 +12°C° 0.1 mm 2 mps 755 mmHg 81%
    20:00 +12°C° 0.1 mm 2 mps 755 mmHg 82%
    21:00 +12°C° 0 mm 2 mps 755 mmHg 84%
    22:00 +10°C° 0 mm 2 mps 754 mmHg 85%
    23:00 +10°C° 0 mm 3 mps 754 mmHg 86%

    21 January, Sunday

    Time Temperature Precipitation Wind Pressure Humidity
    00:00 +10°C° 0 mm 2 mps 754 mmHg 87%
    01:00 +10°C° 0 mm 2 mps 754 mmHg 87%
    02:00 +9°C° 0 mm 2 mps 754 mmHg 88%
    03:00 +9°C° 0 mm 2 mps 754 mmHg 88%
    04:00 +10°C° 0 mm 1 mps 754 mmHg 88%
    05:00 +10°C° 0 mm 1 mps 754 mmHg 88%
    06:00 +10°C° 0 mm 1 mps 754 mmHg 87%
    07:00 +10°C° 0 mm 1 mps 754 mmHg 87%
    08:00 +10°C° 0 mm 1 mps 754 mmHg 87%
    09:00 +10°C° 0.1 mm 2 mps 754 mmHg 84%
    10:00 +10°C° 0.1 mm 2 mps 754 mmHg 81%
    11:00 +12°C° 0.1 mm 2 mps 753 mmHg 79%
    12:00 +12°C° 0.2 mm 2 mps 753 mmHg 78%
    13:00 +12°C° 0.2 mm 2 mps 752 mmHg 78%
    14:00 +13°C° 0.2 mm 2 mps 751 mmHg 78%
    15:00 +12°C° 0.5 mm 2 mps 751 mmHg 80%
    16:00 +12°C° 0.5 mm 2 mps 751 mmHg 83%
    17:00 +10°C° 0.5 mm 2 mps 750 mmHg 86%
    18:00 +10°C° 0.9 mm 2 mps 751 mmHg 86%
    19:00 +9°C° 0.9 mm 3 mps 751 mmHg 87%
    20:00 +9°C° 0.9 mm 3 mps 751 mmHg 87%
    21:00 +8°C° 1.3 mm 4 mps 751 mmHg 86%
    22:00 +7°C° 1.3 mm 4 mps 751 mmHg 86%
    23:00 +7°C° 1.3 mm 5 mps 752 mmHg 85%

    22 January, Monday

    Time Temperature Precipitation Wind Pressure Humidity
    00:00 +6°C° 0.7 mm 5 mps 752 mmHg 83%
    01:00 +5°C° 0.7 mm 6 mps 753 mmHg 81%
    02:00 +5°C° 0.7 mm 6 mps 753 mmHg 79%
    03:00 +4°C° 0.1 mm 6 mps 754 mmHg 78%
    04:00 +4°C° 0.1 mm 6 mps 754 mmHg 77%
    05:00 +3°C° 0.1 mm 6 mps 755 mmHg 76%
    06:00 +2°C° 0 mm 6 mps 755 mmHg 75%
    07:00 +2°C° 0 mm 6 mps 756 mmHg 75%
    08:00 +2°C° 0 mm 5 mps 757 mmHg 74%
    09:00 +2°C° 0 mm 6 mps 757 mmHg 69%
    10:00 +3°C° 0 mm 6 mps 758 mmHg 65%
    11:00 +4°C° 0 mm 6 mps 758 mmHg 60%
    12:00 +4°C° 0 mm 6 mps 758 mmHg 57%
    13:00 +5°C° 0 mm 6 mps 758 mmHg 54%
    14:00 +5°C° 0 mm 6 mps 758 mmHg 51%
    15:00 +5°C° 0 mm 6 mps 759 mmHg 53%
    16:00 +5°C° 0 mm 5 mps 760 mmHg 55%
    17:00 +5°C° 0 mm 5 mps 760 mmHg 57%
    18:00 +3°C° 0 mm 5 mps 761 mmHg 59%
    19:00 +2°C° 0 mm 5 mps 762 mmHg 62%
    20:00 +1°C° 0 mm 5 mps 763 mmHg 65%
    21:00 +1°C° 0 mm 4 mps 764 mmHg 65%
    22:00 +1°C° 0 mm 4 mps 764 mmHg 66%
    23:00 +1°C° 0 mm 4 mps 765 mmHg 67%

    23 January, Tuesday

    Time Temperature Precipitation Wind Pressure Humidity
    00:00 0°C° 0 mm 4 mps 765 mmHg 67%
    01:00 +1°C° 0 mm 3 mps 766 mmHg 67%
    02:00 +1°C° 0 mm 3 mps 766 mmHg 68%
    03:00 +1°C° 0 mm 3 mps 766 mmHg 68%
    04:00 +1°C° 0 mm 3 mps 767 mmHg 68%
    05:00 0°C° 0 mm 3 mps 767 mmHg 68%
    06:00 +1°C° 0 mm 2 mps 767 mmHg 68%
    07:00 +1°C° 0 mm 2 mps 768 mmHg 68%
    08:00 +1°C° 0 mm 2 mps 768 mmHg 68%
    09:00 +2°C° 0 mm 2 mps 768 mmHg 62%
    10:00 +4°C° 0 mm 2 mps 768 mmHg 57%
    11:00 +5°C° 0 mm 2 mps 768 mmHg 51%
    12:00 +6°C° 0 mm 2 mps 768 mmHg 48%
    13:00 +6°C° 0 mm 2 mps 768 mmHg 45%
    14:00 +7°C° 0 mm 2 mps 767 mmHg 43%
    15:00 +7°C° 0 mm 2 mps 767 mmHg 45%
    16:00 +7°C° 0 mm 1 mps 767 mmHg 48%
    17:00 +7°C° 0 mm 1 mps 767 mmHg 51%
    18:00 +6°C° 0 mm 1 mps 768 mmHg 52%
    19:00 +6°C° 0 mm 1 mps 768 mmHg 53%
    20:00 +5°C° 0 mm 1 mps 768 mmHg 54%
    21:00 +5°C° 0 mm 1 mps 769 mmHg 54%
    22:00 +4°C° 0 mm 1 mps 769 mmHg 54%
    23:00 +4°C° 0 mm 1 mps 769 mmHg 54%
    Show more